Location: Newark
(50.1395°N, 5.5234°W)
Time: 00:19:25
(UTC+00:00)

ISS - Pass Details

Date: 11 March 2021
Orbit: 418 x 422 km, 51.6° (Epoch: 11 April)

Event Time Altitude Azimuth Distance (km) Brightness Sun altitude
Exits shadow 04:00:40 14° 117° (ESE) 1,276 -1.0 -26.2°
Drops below altitude 10° 04:01:13 10° 116° (ESE) 1,496 -0.6 -26.1°
Sets 04:03:18 0° 115° (ESE) 2,358 0.6 -25.8°
